This is the latest recevied weather packets stored in our database for station/object KY4GW. If no packets are shown the sender has not sent any weather packets the latest 1 day(s).
| Time | Temp. | Humidity | Pressure | Rain* | Wind** | Luminosity | Snow |
|---|---|---|---|---|---|---|---|
| 1778066077 | 8.89° C | 94% | 1012.4 hPa | 0 mm | - | 5 W/m² | - |
| 1778065472 | 8.89° C | 94% | 1012.4 hPa | 0 mm | - | 3 W/m² | - |
| 1778065168 | 8.89° C | 94% | 1012.1 hPa | 0 mm | - | 3 W/m² | - |
| 1778064562 | 8.89° C | 94% | 1012.1 hPa | 0 mm | - | 2 W/m² | - |
| 1778064260 | 9.44° C | 95% | 1011.6 hPa | 0 mm | - | 1 W/m² | - |
| 1778063655 | 9.44° C | 93% | 1011.6 hPa | 0 mm | - | 0 W/m² | - |
| 1778063050 | 9.44° C | 94% | 1011 hPa | 0 mm | - | 0 W/m² | - |
| 1778062747 | 9.44° C | 93% | 1011 hPa | 0 mm | - | 0 W/m² | - |
| 1778062140 | 9.44° C | 93% | 1010.6 hPa | 0 mm | - | 0 W/m² | - |
| 1778061536 | 9.44° C | 93% | 1011 hPa | 0.76 mm | - | 0 W/m² | - |
| 1778060327 | 10° C | 94% | 1010.6 hPa | 0.51 mm | - | 0 W/m² | - |
| 1778060024 | 10° C | 93% | 1010.6 hPa | 0.51 mm | - | 0 W/m² | - |
| 1778059116 | 11.11° C | 95% | 1010.6 hPa | 0.25 mm | - | 0 W/m² | - |
| 1778058814 | 11.67° C | 96% | 1010.6 hPa | 0.25 mm | - | 0 W/m² | - |
| 1778058511 | 11.67° C | 95% | 1010.6 hPa | 0.25 mm | - | 0 W/m² | - |
| 1778057905 | 11.67° C | 95% | 1009.9 hPa | 0.51 mm | - | 0 W/m² | - |
| 1778057601 | 12.22° C | 95% | 1009.9 hPa | 0.51 mm | - | 0 W/m² | - |
| 1778057298 | 12.22° C | 95% | 1009.9 hPa | 0.51 mm | - | 0 W/m² | - |
| 1778056691 | 13.33° C | 96% | 1009.6 hPa | 0.51 mm | - | 0 W/m² | - |
| 1778056389 | 14.44° C | 97% | 1009.6 hPa | 0.51 mm | - | 0 W/m² | - |
| 1778055782 | 14.44° C | 97% | 1008.9 hPa | 0.51 mm | - | 0 W/m² | - |
| 1778055177 | 14.44° C | 97% | 1008.9 hPa | 0.51 mm | - | 0 W/m² | - |
| 1778053663 | 14.44° C | 97% | 1008.9 hPa | 2.03 mm | - | 0 W/m² | - |
| 1778051241 | 14.44° C | 96% | 1008.9 hPa | 0.25 mm | - | 0 W/m² | - |
| 1778050938 | 14.44° C | 96% | 1008.9 hPa | 0.25 mm | - | 0 W/m² | - |
* Rain latest hour (hover to see other rain measurements)
** Current wind speed in m/s (hover to see current wind gust speed)